QAE535 MYNN-KDOV

Flight info

Callsign QAE535
Flight time N/A
Altitude 35000
Route KURAY AR3 HANKX Y307 NUCAR AR3 CASPR Y307 CARPX AR3 GARIC Q107 ZORDO Q111 GEARS DCT THHMP ARLFT2
Aircraft B772/H-SDE3FGHIJ1J4J5J7M1M3P2RWXYZ/LB1D1

Departure

Time 2026-05-06 20:43
Airport Lynden Pindling International Airport (MYNN)

Arrival

Time N/A
Airport Dover Civil Air Terminal/Dover Air Force Base (KDOV)
Time Latitude Longitude Altitude Speed Heading
2026-05-06 20:13 25.04871 -77.46830 25 ft 0 kts 146°
2026-05-06 20:20 25.04869 -77.46825 26 ft 0 kts 146°
2026-05-06 20:22 25.04860 -77.46821 26 ft 0 kts 146°
2026-05-06 20:34 25.04867 -77.46827 25 ft 4 kts 145°
2026-05-06 20:34 25.04886 -77.46842 23 ft 3 kts 148°
2026-05-06 20:34 25.04905 -77.46853 24 ft 3 kts 157°
2026-05-06 20:35 25.04926 -77.46859 25 ft 4 kts 186°
2026-05-06 20:35 25.04946 -77.46851 24 ft 4 kts 231°
2026-05-06 20:35 25.04957 -77.46829 26 ft 4 kts 249°
2026-05-06 20:35 25.04963 -77.46813 26 ft 0 kts 246°
2026-05-06 20:37 25.04961 -77.46817 26 ft 3 kts 246°
2026-05-06 20:38 25.04928 -77.46899 27 ft 15 kts 246°
2026-05-06 20:38 25.04865 -77.46946 28 ft 12 kts 160°
2026-05-06 20:38 25.04799 -77.46884 25 ft 13 kts 134°
2026-05-06 20:38 25.04715 -77.46791 26 ft 21 kts 135°
2026-05-06 20:39 25.04610 -77.46678 27 ft 21 kts 134°
2026-05-06 20:39 25.04507 -77.46563 24 ft 21 kts 135°
2026-05-06 20:39 25.04397 -77.46440 26 ft 24 kts 135°
2026-05-06 20:39 25.04281 -77.46312 25 ft 22 kts 135°
2026-05-06 20:40 25.04171 -77.46190 26 ft 22 kts 135°
2026-05-06 20:40 25.04067 -77.46074 24 ft 21 kts 134°
2026-05-06 20:40 25.03965 -77.45960 26 ft 21 kts 135°
2026-05-06 20:40 25.03897 -77.45884 26 ft 21 kts 134°
2026-05-06 20:41 25.03790 -77.45766 26 ft 24 kts 134°
2026-05-06 20:41 25.03676 -77.45639 25 ft 23 kts 135°
2026-05-06 20:41 25.03564 -77.45515 26 ft 23 kts 135°
2026-05-06 20:41 25.03453 -77.45392 25 ft 23 kts 135°
2026-05-06 20:42 25.03337 -77.45265 26 ft 26 kts 135°
2026-05-06 20:42 25.03193 -77.45183 25 ft 23 kts 183°
2026-05-06 20:42 25.03105 -77.45253 27 ft 13 kts 284°
2026-05-06 20:42 25.03180 -77.45347 27 ft 30 kts 314°
2026-05-06 20:43 25.03535 -77.45742 26 ft 114 kts 315°
2026-05-06 20:43 25.04267 -77.46551 28 ft 179 kts 314°
2026-05-06 20:43 25.05202 -77.47594 455 ft 201 kts 317°
2026-05-06 20:43 25.06257 -77.48777 891 ft 234 kts 315°
2026-05-06 20:44 25.07431 -77.50102 1582 ft 245 kts 318°
2026-05-06 20:44 25.08897 -77.51040 2297 ft 253 kts 347°
2026-05-06 20:44 25.10658 -77.51112 3102 ft 259 kts
2026-05-06 20:44 25.12437 -77.50655 4073 ft 266 kts 15°
2026-05-06 20:45 25.14224 -77.50038 5137 ft 272 kts 17°
2026-05-06 20:45 25.16043 -77.49394 6207 ft 277 kts 16°
2026-05-06 20:45 25.17898 -77.48752 7244 ft 281 kts 16°
2026-05-06 20:45 25.19772 -77.48120 8293 ft 283 kts 15°
2026-05-06 20:46 25.21660 -77.47495 9383 ft 284 kts 15°
2026-05-06 20:46 25.23571 -77.46866 10362 ft 289 kts 15°
2026-05-06 20:46 25.25587 -77.46343 10909 ft 310 kts
2026-05-06 20:46 25.27831 -77.46101 11122 ft 339 kts
2026-05-06 20:47 25.30267 -77.46176 11562 ft 359 kts 356°
2026-05-06 20:47 25.32753 -77.46380 12385 ft 366 kts 355°
2026-05-06 20:47 25.35312 -77.46600 13362 ft 370 kts 355°
2026-05-06 20:47 25.37886 -77.46801 14341 ft 372 kts 355°
2026-05-06 20:48 25.40475 -77.46983 15262 ft 374 kts 356°
2026-05-06 20:48 25.43080 -77.47152 16186 ft 376 kts 356°
2026-05-06 20:48 25.45704 -77.47315 17083 ft 379 kts 356°
2026-05-06 20:48 25.48343 -77.47476 17954 ft 382 kts 356°
2026-05-06 20:49 25.51009 -77.47640 18738 ft 385 kts 356°
2026-05-06 20:49 25.53705 -77.47804 19430 ft 390 kts 356°
2026-05-06 20:49 25.56434 -77.47969 20078 ft 396 kts 355°
2026-05-06 20:49 25.59200 -77.48135 20732 ft 401 kts 355°
2026-05-06 20:50 25.62002 -77.48303 21412 ft 405 kts 355°
2026-05-06 20:50 25.64831 -77.48473 22102 ft 409 kts 355°
2026-05-06 20:50 25.67689 -77.48645 22760 ft 414 kts 355°
2026-05-06 20:50 25.70585 -77.48819 23395 ft 419 kts 355°
2026-05-06 20:51 25.73513 -77.48992 23962 ft 424 kts 355°
2026-05-06 20:51 25.76469 -77.49165 24527 ft 427 kts 355°
2026-05-06 20:51 25.79445 -77.49339 25148 ft 428 kts 355°
2026-05-06 20:51 25.82427 -77.49513 25773 ft 430 kts 355°
2026-05-06 20:52 25.85425 -77.49688 26362 ft 433 kts 355°
2026-05-06 20:52 25.88443 -77.49865 26961 ft 435 kts 355°
2026-05-06 20:52 25.91469 -77.50043 27565 ft 437 kts 354°
2026-05-06 20:52 25.94475 -77.50220 28141 ft 440 kts 354°
2026-05-06 20:53 25.97548 -77.50401 28683 ft 443 kts 354°
2026-05-06 20:53 26.00636 -77.50583 29223 ft 446 kts 354°
2026-05-06 20:53 26.03740 -77.50766 29762 ft 448 kts 354°
2026-05-06 20:53 26.06866 -77.50950 30271 ft 451 kts 354°
2026-05-06 20:54 26.10008 -77.51135 30685 ft 453 kts 354°
2026-05-06 20:54 26.13160 -77.51321 31121 ft 454 kts 354°
2026-05-06 20:54 26.16316 -77.51507 31652 ft 453 kts 354°
2026-05-06 20:54 26.19457 -77.51691 32234 ft 451 kts 353°
2026-05-06 20:55 26.22578 -77.51875 32803 ft 448 kts 353°
2026-05-06 20:55 26.25690 -77.52058 33330 ft 447 kts 353°
2026-05-06 20:55 26.28799 -77.52242 33835 ft 446 kts 353°
2026-05-06 20:55 26.31897 -77.52425 34304 ft 445 kts 353°
2026-05-06 20:56 26.34985 -77.52608 34778 ft 443 kts 353°
2026-05-06 20:56 26.38066 -77.52791 35083 ft 445 kts 353°
2026-05-06 20:56 26.41175 -77.52977 35059 ft 448 kts 353°
2026-05-06 20:57 26.47359 -77.53343 35058 ft 442 kts 353°
2026-05-06 20:57 26.53482 -77.53706 35065 ft 440 kts 353°
2026-05-06 20:58 26.59596 -77.54070 35063 ft 440 kts 353°
2026-05-06 20:58 26.65722 -77.54436 35067 ft 441 kts 353°
2026-05-06 20:59 26.71810 -77.54799 35066 ft 441 kts 353°
2026-05-06 20:59 26.77947 -77.55165 35056 ft 442 kts 353°
2026-05-06 21:00 26.84088 -77.55532 35070 ft 442 kts 353°
2026-05-06 21:00 26.90232 -77.55899 35069 ft 442 kts 353°
2026-05-06 21:01 26.96376 -77.56266 35078 ft 442 kts 352°
2026-05-06 21:01 27.02511 -77.56634 35061 ft 441 kts 352°
2026-05-06 21:02 27.08643 -77.57001 35062 ft 440 kts 352°
2026-05-06 21:02 27.14751 -77.57368 35072 ft 439 kts 352°
2026-05-06 21:03 27.20858 -77.57735 35076 ft 439 kts 352°
2026-05-06 21:03 27.26964 -77.58103 35074 ft 439 kts 352°
2026-05-06 21:04 27.33022 -77.58468 35069 ft 439 kts 352°
2026-05-06 21:04 27.39123 -77.58836 35067 ft 439 kts 352°
2026-05-06 21:05 27.45225 -77.59204 35069 ft 439 kts 352°
2026-05-06 21:05 27.51344 -77.59572 35095 ft 441 kts 352°
2026-05-06 21:06 27.57476 -77.59945 35074 ft 442 kts 352°
2026-05-06 21:06 27.63627 -77.60319 35089 ft 443 kts 352°
2026-05-06 21:07 27.69787 -77.60692 35073 ft 443 kts 352°
2026-05-06 21:07 27.75916 -77.61064 35074 ft 443 kts 352°
2026-05-06 21:08 27.82089 -77.61439 35089 ft 443 kts 352°
2026-05-06 21:08 27.88245 -77.61813 35072 ft 442 kts 352°
2026-05-06 21:09 27.94388 -77.62187 35074 ft 441 kts 352°
2026-05-06 21:09 28.00514 -77.62561 35076 ft 441 kts 352°
2026-05-06 21:10 28.06636 -77.62935 35074 ft 440 kts 352°
2026-05-06 21:10 28.12747 -77.63308 35088 ft 440 kts 351°
2026-05-06 21:11 28.18835 -77.63632 35075 ft 440 kts 352°
2026-05-06 21:11 28.24954 -77.63928 35076 ft 440 kts 352°
2026-05-06 21:12 28.31072 -77.64227 35074 ft 440 kts 352°
2026-05-06 21:12 28.37194 -77.64532 35076 ft 440 kts 352°
2026-05-06 21:13 28.43314 -77.64840 35084 ft 440 kts 352°
2026-05-06 21:13 28.49434 -77.65148 35079 ft 440 kts 352°
2026-05-06 21:14 28.55563 -77.65458 35079 ft 440 kts 352°
2026-05-06 21:14 28.61644 -77.65764 35079 ft 440 kts 352°